Flag for Germany Weather past 2 weeks in Eberswalde, Brandenburg, Germany

Now
36 °F

Clear.


Feels Like: 29 °F
Forecast: 32 / 44 °F
Wind: 8 mph from South

Location: Berlin-Tegel

Current Time: Mar 1, 2015 at 12:14:02 AM

Latest Report: Feb 28, 2015 at 11:20 PM


Visibility: 10 mi

Pressure: 29.98 "Hg

Humidity: 70%

Dew point: 27 °F

Location of EberswaldeLocation

Historic Weather in Eberswalde — Graph

°F

Eberswalde temperature yesterday

Maximum temperature yesterday: 45 °F (at 1:50 PM)
Minimum temperature yesterday: 36 °F (at 7:20 AM)
Average temperature yesterday: 39 °F

Past Weeks' High & Low Weather Summary

 TemperatureHumidityPressure
High52 °F (Feb 21, 11:50 AM)100% (Feb 18, 4:20 AM)30.72 "Hg (Feb 18, 4:20 AM)
Low27 °F (Feb 14, 6:20 AM)37% (Feb 27, 4:50 PM)29.39 "Hg (Feb 21, 11:50 AM)
Average37 °F76%30.01 "Hg
* Reported Feb 13 10:20 PM — Feb 28 10:50 PM, Eberswalde, Weather by CustomWeather, © 2015

Note: Actual official high and low records may vary slightly from our data, if they occured in-between our weather recording intervals... More about our weather records

Advertising

Eberswalde weather history for previous 24 hours

 ConditionsComfort  
Time TempWeatherWind HumidityBarometerVisibility
10:50 PM
Sat, Feb 28
36 °FClear.7 mph70%29.98 "Hg10 mi
10:20 PM37 °FClear.8 mph65%29.98 "Hg10 mi
9:50 PM37 °FClear.8 mph65%30.01 "Hg10 mi
9:20 PM37 °FClear.7 mph65%30.01 "Hg10 mi
8:50 PM39 °FClear.7 mph61%30.01 "Hg10 mi
8:20 PM39 °FClear.7 mph61%30.01 "Hg10 mi
7:50 PM39 °FClear.8 mph61%30.04 "Hg10 mi
7:20 PM39 °FClear.6 mph61%30.04 "Hg10 mi
6:50 PM39 °FClear.5 mph61%30.04 "Hg10 mi
6:20 PM39 °FClear.5 mph61%30.04 "Hg10 mi
5:50 PM41 °FClear.5 mph57%30.04 "Hg10 mi
5:20 PM41 °FPassing clouds.6 mph57%30.07 "HgN/A
4:50 PM43 °FPassing clouds.7 mph53%30.07 "HgN/A
4:20 PM43 °FPassing clouds.7 mph57%30.07 "HgN/A
3:50 PM43 °FPassing clouds.7 mph57%30.07 "HgN/A
3:20 PM43 °FPassing clouds.10 mph53%30.07 "HgN/A
2:50 PM43 °FPassing clouds.10 mph53%30.07 "HgN/A
2:20 PM45 °FPassing clouds.12 mph49%30.07 "HgN/A
1:50 PM45 °FScattered clouds.7 mph53%30.09 "HgN/A
1:20 PM43 °FScattered clouds.9 mph57%30.09 "HgN/A
12:50 PM43 °FScattered clouds.10 mph57%30.09 "HgN/A
12:20 PM43 °FScattered clouds.12 mph57%30.09 "HgN/A
11:50 AM41 °FPartly sunny.10 mph66%30.12 "HgN/A
11:20 AM41 °FScattered clouds.9 mph70%30.12 "HgN/A
10:50 AM41 °FScattered clouds.10 mph70%30.12 "HgN/A
10:20 AM39 °FScattered clouds.8 mph75%30.12 "HgN/A
9:50 AM39 °FSunny.9 mph75%30.12 "Hg10 mi
9:20 AM37 °FScattered clouds.8 mph81%30.09 "HgN/A
8:50 AM36 °FScattered clouds.8 mph93%30.09 "HgN/A
8:20 AM36 °FScattered clouds.8 mph87%30.09 "HgN/A
7:50 AM36 °FPartly sunny.8 mph87%30.09 "HgN/A
7:20 AM36 °FPartly sunny.10 mph93%30.09 "HgN/A
6:50 AM37 °FPassing clouds.10 mph87%30.07 "HgN/A
6:20 AM37 °FPassing clouds.10 mph93%30.07 "Hg6 mi
5:50 AM37 °FDrizzle. Low clouds.9 mph93%30.07 "Hg5 mi
5:20 AM37 °FLow clouds.9 mph100%30.04 "Hg5 mi
4:20 AM37 °FPassing clouds.8 mph100%30.04 "HgN/A
3:50 AM37 °FPassing clouds.8 mph93%30.04 "HgN/A
3:20 AM37 °FPassing clouds.8 mph93%30.01 "HgN/A
2:50 AM37 °FPassing clouds.8 mph93%30.01 "HgN/A
2:20 AM37 °FPassing clouds.8 mph100%30.01 "Hg4 mi
1:50 AM37 °FPassing clouds.7 mph100%30.01 "Hg4 mi
1:20 AM37 °FLight rain. Mostly cloudy.7 mph93%30.01 "Hg4 mi
12:50 AM37 °FLight rain. Mostly cloudy.7 mph93%30.01 "Hg6 mi
12:20 AM37 °FLight rain. Partly cloudy.7 mph100%30.01 "HgN/A
Weather by CustomWeather, © 2015

See weather overviewHow to use our weather pages